Location: Newark
(13.8625°N, 100.5144°E)
Time: 15:36:11
(UTC+00:00)

XW-2D - Visible Passes

Search period start: 03 August 2021 00:00
Search period end: 13 August 2021 00:00
Orbit: 504 x 524 km, 97.5° (Epoch: 03 August)

Date Brightness Start Highest point End Pass type
(mag) Time Alt. Az. Time Alt. Az. Time Alt. Az.
03 Aug ? 22:10:45 10° ENE 22:12:41 14° E 22:14:37 10° SE visible
07 Aug ? 22:42:04 10° NNE 22:45:40 43° E 22:49:17 10° S visible
08 Aug ? 22:27:16 10° NE 22:30:25 25° E 22:33:34 10° SSE visible
09 Aug ? 22:12:59 10° ENE 22:15:10 15° E 22:17:21 10° SE visible
